• In Germany
  • List of Countries
  • For 7 days
  • Water Temperature
  • Satellite Maps
  • Weather Map
  • Weather Widgets
  • user-avatar
    Login

    Hourly Weather Jelenia Góra

    Today, 21 October, Saturday

    Time Temperature Precipitation Wind Pressure Humidity
    00:00 +12°C° 0.1 mm 2 mps 731 mmHg 75%
    01:00 +9°C° 0 mm 2 mps 731 mmHg 84%
    02:00 +9°C° 0 mm 2 mps 731 mmHg 85%
    03:00 +9°C° 0 mm 2 mps 730 mmHg 87%
    04:00 +9°C° 0 mm 2 mps 730 mmHg 88%
    05:00 +8°C° 0 mm 2 mps 731 mmHg 89%
    06:00 +8°C° 0 mm 2 mps 731 mmHg 90%
    07:00 +8°C° 0 mm 2 mps 731 mmHg 90%
    08:00 +9°C° 0 mm 2 mps 731 mmHg 84%
    09:00 +12°C° 0 mm 2 mps 731 mmHg 77%
    10:00 +13°C° 0 mm 2 mps 731 mmHg 71%
    11:00 +14°C° 0 mm 2 mps 731 mmHg 68%
    12:00 +14°C° 0 mm 2 mps 731 mmHg 65%
    13:00 +15°C° 0 mm 2 mps 731 mmHg 61%
    14:00 +14°C° 0 mm 2 mps 731 mmHg 63%
    15:00 +14°C° 0 mm 2 mps 731 mmHg 66%
    16:00 +13°C° 0 mm 1 mps 731 mmHg 68%
    17:00 +13°C° 0 mm 1 mps 731 mmHg 69%
    18:00 +12°C° 0 mm 1 mps 731 mmHg 70%
    19:00 +11°C° 0 mm 1 mps 731 mmHg 72%
    20:00 +12°C° 0 mm 1 mps 731 mmHg 71%
    21:00 +12°C° 0 mm 1 mps 731 mmHg 71%
    22:00 +12°C° 0 mm 2 mps 731 mmHg 70%
    23:00 +12°C° 0 mm 2 mps 730 mmHg 72%

    Tomorrow, 22 October, Sunday

    Time Temperature Precipitation Wind Pressure Humidity
    00:00 +12°C° 0 mm 2 mps 730 mmHg 74%
    01:00 +10°C° 0 mm 2 mps 730 mmHg 76%
    02:00 +10°C° 0.8 mm 2 mps 730 mmHg 79%
    03:00 +10°C° 0.8 mm 2 mps 729 mmHg 83%
    04:00 +10°C° 0.8 mm 3 mps 729 mmHg 86%
    05:00 +10°C° 3.3 mm 3 mps 729 mmHg 88%
    06:00 +10°C° 3.3 mm 3 mps 729 mmHg 90%
    07:00 +10°C° 3.3 mm 3 mps 729 mmHg 92%
    08:00 +10°C° 0.4 mm 3 mps 730 mmHg 89%
    09:00 +10°C° 0.4 mm 3 mps 730 mmHg 86%
    10:00 +11°C° 0.4 mm 4 mps 730 mmHg 83%
    11:00 +11°C° 0.1 mm 4 mps 730 mmHg 80%
    12:00 +12°C° 0.1 mm 4 mps 730 mmHg 77%
    13:00 +12°C° 0.1 mm 4 mps 730 mmHg 73%
    14:00 +12°C° 0 mm 3 mps 729 mmHg 74%
    15:00 +11°C° 0 mm 3 mps 729 mmHg 75%
    16:00 +12°C° 0 mm 2 mps 729 mmHg 76%
    17:00 +10°C° 0.1 mm 2 mps 729 mmHg 79%
    18:00 +10°C° 0.1 mm 2 mps 730 mmHg 81%
    19:00 +10°C° 0.1 mm 1 mps 730 mmHg 84%
    20:00 +9°C° 0 mm 1 mps 730 mmHg 85%
    21:00 +9°C° 0 mm 1 mps 730 mmHg 86%
    22:00 +8°C° 0 mm 1 mps 730 mmHg 87%
    23:00 +8°C° 0 mm 1 mps 730 mmHg 87%

    Day after tomorrow, 23 October, Monday

    Time Temperature Precipitation Wind Pressure Humidity
    00:00 +8°C° 0 mm 1 mps 730 mmHg 87%
    01:00 +7°C° 0 mm 1 mps 730 mmHg 87%
    02:00 +6°C° 0 mm 2 mps 730 mmHg 88%
    03:00 +6°C° 0 mm 2 mps 730 mmHg 88%
    04:00 +6°C° 0 mm 2 mps 730 mmHg 89%
    05:00 +6°C° 0 mm 2 mps 730 mmHg 89%
    06:00 +6°C° 0 mm 2 mps 730 mmHg 89%
    07:00 +6°C° 0 mm 2 mps 730 mmHg 89%
    08:00 +7°C° 0 mm 2 mps 730 mmHg 84%
    09:00 +8°C° 0 mm 2 mps 730 mmHg 78%
    10:00 +9°C° 0 mm 2 mps 730 mmHg 72%
    11:00 +10°C° 0 mm 2 mps 730 mmHg 70%
    12:00 +10°C° 0 mm 2 mps 730 mmHg 68%
    13:00 +12°C° 0 mm 2 mps 730 mmHg 66%
    14:00 +10°C° 0 mm 2 mps 731 mmHg 68%
    15:00 +11°C° 0 mm 1 mps 731 mmHg 71%
    16:00 +11°C° 0 mm 1 mps 731 mmHg 73%
    17:00 +10°C° 0 mm 1 mps 731 mmHg 77%
    18:00 +8°C° 0 mm 2 mps 732 mmHg 82%
    19:00 +7°C° 0 mm 2 mps 732 mmHg 86%
    20:00 +7°C° 0 mm 2 mps 732 mmHg 87%
    21:00 +7°C° 0 mm 2 mps 733 mmHg 87%
    22:00 +6°C° 0 mm 2 mps 733 mmHg 88%
    23:00 +6°C° 0 mm 2 mps 734 mmHg 89%

    24 October, Tuesday

    Time Temperature Precipitation Wind Pressure Humidity
    00:00 +6°C° 0 mm 2 mps 734 mmHg 90%
    01:00 +6°C° 0 mm 2 mps 734 mmHg 91%
    02:00 +6°C° 0 mm 2 mps 734 mmHg 93%
    03:00 +5°C° 0 mm 2 mps 735 mmHg 94%
    04:00 +5°C° 0 mm 2 mps 735 mmHg 95%
    05:00 +5°C° 0 mm 2 mps 736 mmHg 95%
    06:00 +6°C° 0 mm 2 mps 736 mmHg 95%
    07:00 +6°C° 0 mm 2 mps 736 mmHg 95%
    08:00 +7°C° 0 mm 2 mps 737 mmHg 92%
    09:00 +7°C° 0 mm 2 mps 737 mmHg 88%
    10:00 +8°C° 0 mm 2 mps 738 mmHg 84%
    11:00 +9°C° 0 mm 2 mps 738 mmHg 82%
    12:00 +9°C° 0 mm 2 mps 738 mmHg 80%
    13:00 +9°C° 0 mm 2 mps 738 mmHg 78%
    14:00 +9°C° 0 mm 2 mps 738 mmHg 79%
    15:00 +9°C° 0 mm 2 mps 739 mmHg 81%
    16:00 +9°C° 0 mm 2 mps 739 mmHg 82%
    17:00 +9°C° 0 mm 1 mps 739 mmHg 85%
    18:00 +8°C° 0 mm 1 mps 739 mmHg 88%
    19:00 +7°C° 0 mm 1 mps 739 mmHg 92%
    20:00 +7°C° 0 mm 1 mps 740 mmHg 92%
    21:00 +7°C° 0 mm 1 mps 740 mmHg 92%
    22:00 +7°C° 0 mm 1 mps 740 mmHg 92%
    23:00 +6°C° 0 mm 1 mps 740 mmHg 92%

    25 October, Wednesday

    Time Temperature Precipitation Wind Pressure Humidity
    00:00 +6°C° 0 mm 1 mps 740 mmHg 92%
    01:00 +6°C° 0 mm 1 mps 740 mmHg 92%
    02:00 +5°C° 0 mm 1 mps 740 mmHg 92%
    03:00 +5°C° 0 mm 1 mps 740 mmHg 92%
    04:00 +5°C° 0 mm 1 mps 740 mmHg 92%
    05:00 +5°C° 0 mm 1 mps 740 mmHg 91%
    06:00 +5°C° 0 mm 1 mps 740 mmHg 91%
    07:00 +5°C° 0 mm 1 mps 740 mmHg 90%
    08:00 +7°C° 0 mm 1 mps 740 mmHg 84%
    09:00 +7°C° 0 mm 2 mps 741 mmHg 78%
    10:00 +9°C° 0 mm 2 mps 741 mmHg 72%
    11:00 +10°C° 0 mm 2 mps 741 mmHg 68%
    12:00 +12°C° 0 mm 2 mps 740 mmHg 65%
    13:00 +12°C° 0 mm 2 mps 740 mmHg 61%
    14:00 +12°C° 0 mm 2 mps 740 mmHg 64%
    15:00 +12°C° 0 mm 2 mps 740 mmHg 67%
    16:00 +10°C° 0 mm 2 mps 739 mmHg 70%
    17:00 +10°C° 0 mm 2 mps 739 mmHg 71%
    18:00 +9°C° 0 mm 2 mps 740 mmHg 72%
    19:00 +9°C° 0 mm 2 mps 740 mmHg 73%
    20:00 +9°C° 0 mm 2 mps 740 mmHg 73%
    21:00 +9°C° 0 mm 2 mps 740 mmHg 74%
    22:00 +9°C° 0 mm 2 mps 740 mmHg 74%
    23:00 +9°C° 0 mm 2 mps 740 mmHg 76%

    26 October, Thursday

    Time Temperature Precipitation Wind Pressure Humidity
    00:00 +9°C° 0 mm 2 mps 739 mmHg 78%
    01:00 +9°C° 0 mm 2 mps 739 mmHg 81%
    02:00 +9°C° 0.1 mm 2 mps 739 mmHg 82%
    03:00 +9°C° 0.1 mm 2 mps 739 mmHg 83%
    04:00 +9°C° 0.1 mm 2 mps 739 mmHg 84%
    05:00 +9°C° 0.1 mm 2 mps 739 mmHg 85%
    06:00 +9°C° 0.1 mm 2 mps 739 mmHg 86%
    07:00 +10°C° 0.1 mm 2 mps 739 mmHg 87%
    08:00 +10°C° 0 mm 2 mps 739 mmHg 86%
    09:00 +12°C° 0 mm 2 mps 739 mmHg 86%
    10:00 +12°C° 0 mm 2 mps 739 mmHg 85%
    11:00 +12°C° 0 mm 3 mps 739 mmHg 82%
    12:00 +13°C° 0 mm 3 mps 739 mmHg 79%
    13:00 +14°C° 0 mm 3 mps 739 mmHg 76%
    14:00 +14°C° 0 mm 3 mps 738 mmHg 78%
    15:00 +15°C° 0 mm 2 mps 738 mmHg 80%
    16:00 +14°C° 0 mm 2 mps 738 mmHg 83%
    17:00 +13°C° 0 mm 2 mps 737 mmHg 86%
    18:00 +12°C° 0 mm 2 mps 737 mmHg 89%
    19:00 +12°C° 0 mm 2 mps 737 mmHg 92%
    20:00 +12°C° 0 mm 2 mps 737 mmHg 91%
    21:00 +11°C° 0 mm 3 mps 736 mmHg 91%
    22:00 +11°C° 0 mm 3 mps 736 mmHg 90%
    23:00 +11°C° 0 mm 3 mps 735 mmHg 89%
    Show more